Regional Weather Roundup
Issued by NWS

Home | Current Version | Previous Version | Text Only | Print | Product List | Glossary Off
Versions: 1 2 3 4 5 6 7 8 9 10 11 12 13 14 15 16 17 18 19 20 21 22 23 24 25 26 27 28 29 30 31 32 33 34 35 36 37 38 39 40 41 42 43 44 45 46 47 48 49 50

000
ASUS44 KMEG 280110
RWRTN
TENNESSEE HOURLY STATE WEATHER ROUNDUP
NATIONAL WEATHER SERVICE MEMPHIS TN
800 PM CDT SAT MAY 27 2017

TNZ002-004-019-021-049-052-054-088>092-280200-
WEST TENNESSEE

CITY           SKY/WX    TMP DP  RH WIND       PRES   REMARKS
MEMPHIS INTL   CLOUDY    85  73  67 SW10      29.83R HX  91
NWS MEMPHIS      N/A     85 N/A N/A MISG        N/A
JACKSON        CLOUDY    81  75  82 CALM      29.86R
DYERSBURG        N/A    N/A N/A N/A MISG        N/A  THUNDER
COVINGTON      CLOUDY    82  73  74 SE3       29.83S
UNION CITY     CLOUDY    66  63  88 NE9       29.90F
BOLIVAR        MOCLDY    81  73  78 CALM      29.85S
PARIS          CLOUDY    63  61  94 E5        29.95F
HUNTINGDON     CLOUDY    63  63 100 NE10G21   29.96R FOG
LEXINGTON      CLOUDY    81  73  78 MISG      29.89R
SELMER         PTCLDY    81  73  78 CALM      29.87R
SAVANNAH       PTCLDY    81  73  78 CALM      29.87R
$$

TNZ008-025-027-028-033-062-065-066-280200-
NORTH MIDDLE TENNESSEE

CITY           SKY/WX    TMP DP  RH WIND       PRES   REMARKS
NASHVILLE      TSTM      67  64  90 W9        29.94S
PORTLAND       CLOUDY    66  63  88 N8        29.91F
CLARKSVILLE    TSTM      66  61  84 W9G30     30.01R
SMYRNA         RAIN      66  64  93 NW13      29.96R
COOKEVILLE     CLOUDY    70  68  94 CALM      29.89R
GALLATIN       CLOUDY    66  64  94 NW9       29.92R
CROSSVILLE     CLOUDY    69  65  86 S6        29.92F
$$

TNZ061-075-076-078-094-096-097-280200-
SOUTH MIDDLE TENNESSEE

CITY           SKY/WX    TMP DP  RH WIND       PRES   REMARKS
FAYETTEVILLE   PTCLDY    79  72  78 S6        29.91R
TULLAHOMA        N/A     75  68  78 SW6       29.93R
WINCHESTER     CLEAR     77  70  78 SW3         N/A
MCMINNVILLE    MOCLDY    79  72  78 SW7       29.92R
COLUMBIA       MOCLDY    81  72  74 CALM      29.88R
SHELBYVILLE    PTCLDY    77  70  78 SW6       29.90R
$$

TNZ017-018-042-046-047-280200-
NORTHEAST TENNESSEE

CITY           SKY/WX    TMP DP  RH WIND       PRES   REMARKS
TRI CITIES     TSTM      66  61  84 SE3       29.97R
ELIZABETHTON   CLOUDY    73  63  68 N17G24    29.97R
$$

TNZ012-013-036-069-073-074-280200-
CENTRAL EAST TENNESSEE

CITY           SKY/WX    TMP DP  RH WIND       PRES   REMARKS
KNOXVILLE      CLOUDY    76  66  71 S9        29.88F
OAK RIDGE      CLOUDY    76  69  79 NW3       29.90F
DOWNTOWN KNOXV CLEAR     77  70  78 SW6       29.88F
GATLINBURG     PTCLDY    75  64  69 VRB3      29.89F
MORRISTOWN     PTCLDY    75  70  83 S7        29.89F
JACKSBORO      MOCLDY    72  72 100 N3        29.92F
$$

TNZ083-085-099-280200-
SOUTHEAST TENNESSEE

CITY           SKY/WX    TMP DP  RH WIND       PRES   REMARKS
CHATTANOOGA    MOCLDY    79  68  69 S7        29.90S
$$

SKY/WX REPORTED AS FAIR MEANS FEW OR NO CLOUDS BELOW
12 THOUSAND FEET.





USA.gov is the U.S. government's official web portal to all federal, state and local government web resources and services.